EHI
27 30 32 34 38 43 47 45 40 36 31 24 21 20 21 22 23 27 30 27 22 19 15 15 17 18 16 13 10 7 5 3 4 5 6 6 11 15 15 17 20 23 26
31 35 37 38 42 47 51 49 46 44 38 29 23 21 19 20 22 26 30 29 25 22 20 20 20 20 19 16 13 11 9 6 5 6 5 5 9 12 13 15 18 22 23
39 42 42 40 43 50 52 52 53 51 44 35 28 24 23 22 23 28 33 31 29 28 26 25 24 24 23 19 16 16 15 11 9 7 5 5 6 8 11 13 16 18 18
44 46 45 41 42 46 49 54 58 55 48 39 31 29 29 27 26 31 35 34 32 31 28 27 28 28 25 19 16 17 18 16 12 9 8 7 6 7 9 11 12 13 14
46 47 48 45 43 44 48 56 63 62 55 46 38 33 31 28 27 31 35 34 33 31 29 29 32 33 30 25 20 18 18 16 14 11 10 9 8 8 9 8 7 9 11
44 47 51 51 47 46 50 59 67 67 62 54 45 40 36 31 29 30 33 32 31 30 28 31 36 38 35 33 30 25 21 18 16 15 14 12 10 9 10 9 7 8 9
40 45 52 54 51 49 53 61 69 70 66 59 52 48 44 40 35 35 34 33 31 30 29 32 39 41 38 35 32 28 24 23 21 19 19 16 11 10 11 11 9 8 10
39 42 49 54 53 51 54 61 67 69 66 61 56 54 52 46 40 38 36 34 33 32 33 36 40 41 37 33 31 28 27 29 29 25 24 21 16 14 14 13 12 10 9
37 41 47 51 51 50 54 59 65 66 64 60 57 55 53 47 40 36 35 33 32 33 37 41 41 40 36 35 32 31 32 36 35 31 28 25 22 20 18 16 15 13 9
32 38 45 46 47 49 51 56 61 63 62 59 57 53 48 45 41 37 35 35 35 36 38 40 41 38 37 38 36 33 35 38 36 32 29 27 24 22 20 18 17 15 12
27 34 39 42 44 45 48 52 56 58 58 57 56 52 46 44 45 41 37 38 40 39 36 36 36 35 34 38 38 33 31 33 32 29 27 26 24 23 22 19 16 15 15
27 30 34 37 39 40 45 48 49 51 52 54 56 53 48 46 46 43 39 39 40 39 36 34 34 31 30 33 35 31 27 27 27 25 24 23 23 24 23 21 18 17 17
30 31 34 36 36 39 43 43 42 43 47 52 54 52 49 47 45 44 42 41 40 39 38 37 35 31 28 27 28 26 24 24 23 21 20 20 21 22 19 19 20 19 18
32 34 38 40 39 41 43 41 38 39 43 48 50 50 48 46 44 43 43 41 40 39 39 39 37 32 27 24 22 21 22 21 18 16 16 17 18 17 15 14 17 17 16
32 35 41 43 42 43 44 41 38 39 42 44 47 48 47 44 42 40 40 41 41 39 39 38 35 30 23 18 16 17 19 19 16 13 14 15 14 12 11 11 12 13 13
30 33 39 42 43 44 45 43 40 40 43 45 46 45 43 41 39 38 38 40 42 40 38 36 33 27 17 11 9 11 16 17 15 13 13 12 11 9 8 8 7 8 7
28 29 33 39 44 45 45 44 42 43 45 47 46 43 41 38 37 37 38 39 41 39 36 34 32 26 17 8 5 6 12 16 15 14 12 11 9 8 9 8 6 4 4
29 28 31 37 43 45 45 45 44 45 47 47 45 42 40 38 37 38 39 39 37 35 32 30 30 27 19 10 4 5 9 13 14 13 13 11 9 8 10 11 10 8 8
32 31 33 39 44 46 46 46 46 45 45 44 43 40 38 36 36 38 40 38 35 30 27 25 25 24 18 10 4 4 9 13 13 12 12 11 9 7 7 11 14 14 14
35 36 38 42 46 47 46 45 45 43 40 39 38 36 33 31 31 34 36 35 32 28 25 24 22 19 14 8 3 3 8 12 13 13 12 9 7 4 5 9 13 14 14
38 38 40 43 46 47 46 44 44 41 37 35 34 33 30 27 26 28 29 28 27 26 25 24 21 16 10 5 1 2 5 9 11 12 11 8 5 2 3 5 8 9 9
39 39 39 42 45 46 44 43 42 40 37 34 32 31 28 23 21 23 23 22 23 24 23 20 18 14 9 4 1 0 2 4 6 7 8 7 3 1 1 2 3 3 2
37 38 38 39 41 42 41 40 40 39 36 33 32 31 27 21 20 21 20 17 18 18 16 14 14 12 8 4 1 0 0 1 1 3 4 3 1 0 0 1 1 0 0
34 35 35 35 36 38 38 38 37 36 33 31 31 29 24 20 20 19 15 12 13 13 12 11 10 8 6 4 2 1 0 0 0 1 2 1 0 0 0 1 1 0 0
33 33 32 32 32 34 36 35 33 32 29 27 25 22 18 16 16 14 10 7 7 8 8 8 6 5 4 3 3 2 1 0 0 1 2 2 1 0 1 2 1 0 0
32 32 31 30 30 31 31 31 31 30 27 23 20 16 14 13 13 11 7 4 3 3 4 4 3 2 2 1 1 1 1 0 0 1 1 1 1 0 1 2 1 0 0
Wind_Speed
13 13 12 12 12 10 9 8 7 6 4 3 3 3 3 3 3 3 3 3 3 3 2 2 1 2 1 1 1 1 3 3 2 3 3 3 3 3 3 2 2 3 3
13 13 12 12 13 11 9 8 7 7 6 4 3 3 3 3 3 2 3 3 3 3 3 2 2 2 1 2 2 2 2 3 2 1 2 2 2 2 3 2 2 2 2
14 14 13 12 12 11 11 9 8 8 7 6 4 3 2 2 2 3 2 3 3 2 2 3 3 2 2 2 2 2 2 2 2 1 1 1 1 2 1 2 2 2 2
14 14 13 13 13 13 12 9 9 8 7 6 5 5 4 3 2 2 2 3 3 3 2 2 3 3 2 2 3 2 2 2 2 1 1 2 1 1 2 2 1 3 3
12 13 13 12 12 12 12 10 9 8 7 6 5 4 3 3 2 2 2 2 2 3 3 3 2 2 2 2 2 1 2 2 2 2 1 2 2 3 2 3 3 2 2
12 11 10 9 9 10 10 11 9 8 7 7 6 5 4 3 2 2 2 2 2 2 3 3 2 2 2 2 2 2 3 2 3 3 2 2 2 2 2 3 3 2 2
10 11 11 10 9 10 10 9 9 8 8 7 6 5 5 4 3 3 3 3 2 2 2 2 2 2 2 2 2 2 3 3 3 3 3 3 3 2 2 3 3 3 2
9 10 11 9 9 10 9 9 9 8 7 7 5 4 4 3 3 3 2 2 2 1 2 2 2 2 2 3 2 2 3 3 3 4 3 3 3 3 3 2 3 3 3
10 10 11 9 8 8 8 9 7 7 7 7 5 4 4 3 2 2 2 2 1 2 1 1 1 2 2 3 2 2 3 2 2 3 3 3 3 3 3 2 2 2 3
7 9 10 10 8 7 6 7 7 8 7 6 5 5 4 3 2 1 1 1 1 1 0 1 1 2 2 3 3 3 3 2 2 3 3 3 3 3 3 2 2 2 2
5 6 6 7 8 8 8 8 7 7 7 6 5 4 4 4 3 2 1 1 1 1 1 1 1 2 2 2 2 3 3 3 3 3 3 3 4 3 3 3 2 2 2
5 5 7 7 5 6 7 6 6 7 6 5 5 4 4 4 3 3 2 2 1 2 2 2 2 2 2 2 2 3 3 3 3 3 3 4 4 4 3 2 3 3 3
7 6 6 6 5 4 5 6 6 5 5 5 5 4 4 3 3 3 2 2 2 2 2 2 1 1 2 2 2 2 2 2 2 3 3 3 3 4 3 3 3 3 4
6 6 7 5 4 3 3 3 4 4 5 4 4 3 3 3 3 2 2 1 1 1 1 1 2 1 2 2 2 2 2 2 3 3 3 3 3 4 4 4 3 3 3
6 6 6 5 5 4 4 3 3 3 4 4 4 3 2 1 1 1 1 1 2 2 1 1 1 2 2 1 1 2 2 2 3 3 3 3 3 4 4 4 3 3 3
5 5 5 5 4 4 4 4 3 3 4 3 3 2 2 2 2 1 1 1 1 1 1 1 2 2 2 1 2 1 2 3 4 4 4 4 4 5 5 5 5 4 4
4 5 5 5 4 4 4 3 3 3 3 3 3 3 2 2 2 1 1 1 1 1 1 1 2 1 1 1 2 2 2 3 4 4 4 5 5 3 2 4 5 5 6
4 4 5 5 5 4 4 3 3 3 3 3 3 2 1 1 1 1 1 1 1 1 1 2 2 2 2 1 2 3 3 4 4 4 4 3 4 4 3 4 4 3 4
4 3 3 5 5 4 4 4 2 3 2 2 2 1 1 1 1 1 1 1 1 2 2 2 2 2 1 1 1 2 3 3 4 4 4 3 3 3 4 4 4 4 4
4 3 3 4 4 4 4 3 2 2 2 1 1 2 1 1 1 1 1 1 1 2 2 2 2 2 2 2 1 2 3 3 3 3 3 3 2 3 3 3 4 5 4
4 4 3 3 4 4 4 3 2 2 1 1 1 1 1 2 2 1 1 2 2 2 3 3 2 2 2 1 2 2 2 3 4 4 3 2 3 4 5 5 4 6 5
4 3 3 4 4 4 3 2 2 1 1 1 0 0 0 2 1 1 2 2 3 3 3 3 3 2 1 1 2 3 4 5 4 5 4 3 4 5 6 6 6 7 6
3 3 3 4 4 3 3 2 1 1 1 1 0 1 1 1 1 2 3 2 2 3 3 3 2 1 0 1 1 3 5 6 4 4 6 5 6 6 5 8 8 6 4
3 3 3 3 2 2 2 2 2 1 1 1 1 1 2 2 1 1 2 2 1 2 2 2 2 2 1 1 2 2 3 4 4 4 6 7 8 7 6 5 4 4 4
2 2 2 3 2 2 1 1 1 1 0 1 2 3 3 2 1 1 1 2 1 1 2 2 2 2 2 2 3 3 3 3 4 5 5 4 3 3 2 2 2 2 2
2 2 2 2 2 2 2 1 0 1 1 2 2 3 2 1 1 1 0 2 1 1 1 1 2 2 3 4 5 5 6 5 4 3 4 4 3 3 3 2 2 2 2
Wind_Direction
170 167 171 166 164 163 163 167 173 165 173 182 193 194 195 206 210 191 178 192 217 217 223 269 228 232 225 281 291 285 281 273 263 271 284 262 246 217 205 203 216 212 193
168 166 171 172 169 167 166 170 175 174 184 188 194 201 200 207 204 179 167 196 216 229 213 224 252 240 218 237 254 264 283 292 294 293 310 303 274 275 220 184 206 221 203
171 169 175 175 173 171 173 177 178 179 190 187 191 212 196 216 200 182 184 202 212 228 240 203 229 243 232 221 230 246 255 270 287 291 287 311 309 304 259 218 193 200 200
170 171 176 179 177 175 175 173 174 180 184 188 201 207 204 214 206 192 179 189 206 222 225 227 230 245 248 238 245 210 249 251 272 277 255 250 279 300 314 299 234 208 194
168 169 176 177 177 174 174 172 172 177 181 192 201 212 220 220 208 188 174 198 202 222 229 216 222 231 248 250 274 292 280 274 274 276 278 276 257 243 250 285 305 300 232
158 156 160 165 168 169 170 167 169 177 181 189 197 208 218 228 230 216 197 225 210 217 226 218 213 226 242 249 252 256 259 261 280 291 289 275 268 261 254 274 281 274 270
154 154 154 159 168 170 168 163 166 176 183 188 191 199 207 211 223 234 219 235 229 216 226 228 192 228 243 245 250 245 256 254 259 265 270 277 271 271 262 271 282 285 279
149 156 155 156 165 168 162 161 163 172 177 182 186 192 198 206 216 231 245 234 259 237 198 214 202 229 254 254 240 248 250 242 245 259 266 281 284 285 277 270 284 296 304
147 151 151 153 158 160 156 155 156 165 171 178 172 175 187 203 213 213 231 250 263 255 186 200 217 221 240 256 260 259 267 264 254 266 268 265 274 281 277 275 275 273 285
144 146 147 149 151 158 149 147 155 158 161 166 175 175 179 190 205 214 207 247 264 291 323 238 235 237 236 240 245 255 262 260 259 264 278 279 280 285 288 290 286 277 276
127 132 134 144 155 157 157 153 148 150 161 168 171 170 172 186 195 207 224 238 270 280 263 270 264 258 259 256 253 256 261 262 269 275 273 273 276 285 297 302 298 286 274
130 130 132 135 137 145 149 151 153 160 164 165 168 177 173 178 192 201 221 235 247 261 264 262 268 275 282 280 271 272 277 269 270 274 279 280 279 280 277 291 293 288 275
119 119 122 127 134 140 144 150 156 165 169 165 163 170 181 184 194 203 208 218 229 256 275 281 267 275 286 285 281 276 293 299 290 287 287 290 293 293 292 283 283 282 286
120 119 116 115 113 114 119 137 155 157 156 151 151 156 182 195 199 205 194 203 213 229 241 263 264 265 270 279 287 284 274 282 295 295 290 293 289 290 291 287 282 280 287
126 121 121 120 119 116 126 129 120 116 122 131 142 146 154 171 176 187 201 216 218 222 219 249 265 266 253 273 300 290 293 297 291 288 282 281 281 280 279 285 290 294 288
136 130 127 124 124 121 131 130 128 126 125 134 146 148 157 161 170 170 172 197 245 269 242 247 262 276 294 3 27 341 322 312 301 298 296 287 266 271 265 268 277 277 279
153 146 135 128 128 123 111 118 131 134 142 148 150 149 155 168 171 197 185 203 218 245 267 287 279 280 294 318 335 336 299 294 292 293 295 298 311 309 296 283 270 261 254
149 145 148 138 129 123 119 117 129 136 143 143 145 149 156 183 200 205 214 224 219 243 258 259 265 280 292 289 298 307 281 281 283 286 285 283 299 317 318 299 291 280 269
135 146 150 134 124 123 117 109 118 123 135 144 135 138 174 238 243 244 256 265 253 249 256 260 267 274 282 253 288 293 280 284 293 298 313 308 298 325 321 301 299 299 297
119 116 120 127 123 116 121 126 134 126 143 152 154 160 166 246 258 260 269 271 269 271 271 271 260 264 272 260 256 251 277 290 294 288 280 290 287 300 305 293 297 294 295
124 127 129 129 120 115 118 122 124 132 138 141 169 193 198 225 227 237 255 270 269 270 269 263 255 248 240 227 229 243 270 292 299 296 290 291 290 274 267 270 272 275 283
122 128 119 112 111 112 118 125 128 116 90 73 49 350 286 267 244 255 262 259 263 264 258 256 249 226 181 210 223 234 245 271 284 292 298 304 297 283 271 265 270 277 282
122 124 121 112 116 123 132 141 127 125 142 161 214 244 263 279 274 251 257 258 264 279 286 283 278 258 184 176 248 246 256 264 270 291 301 298 286 283 268 255 260 265 261
147 142 134 121 105 101 111 123 122 136 173 209 240 246 242 238 250 269 273 263 257 271 286 299 307 318 344 11 355 318 298 292 285 295 299 288 274 267 267 271 258 246 250
133 140 138 135 132 122 109 96 86 112 205 255 266 266 259 241 234 268 314 304 325 291 270 298 309 313 315 318 313 312 311 311 315 312 292 284 283 284 279 276 275 277 280
148 157 160 153 152 153 134 127 158 150 244 257 262 275 278 255 243 228 306 10 227 184 166 240 271 285 277 283 298 305 303 299 299 303 290 294 299 302 304 304 305 305 307